Flag Weather past 2 weeks in Apeldoorn, Netherlands

Now
34 °F

Fog.


Feels Like: 28 °F
Forecast: 31 / 39 °F
Wind: 7 mph from East

Location: Deelen

Current Time: Nov 29, 2014 at 7:52:54 AM

Latest Report: Nov 29, 2014 at 6:55 AM


Visibility: 3 mi

Pressure: 29.95 "Hg

Humidity: 93%

Dew point: 32 °F

Location of ApeldoornLocation

Historic Weather in Apeldoorn — Graph

°F

Apeldoorn temperature yesterday

Maximum temperature yesterday: 45 °F (at 11:55 AM)
Minimum temperature yesterday: 36 °F (at 10:55 PM)
Average temperature yesterday: 42 °F

Past Weeks' High & Low Weather Summary

 TemperatureHumidityPressure
High57 °F (Nov 23, 12:55 PM)100% (Nov 14, 11:25 PM)30.33 "Hg (Nov 14, 11:25 PM)
Low30 °F (Nov 25, 2:25 AM)71% (Nov 21, 2:25 PM)29.47 "Hg (Nov 16, 3:25 PM)
Average45 °F91%29.93 "Hg
* Reported Nov 14 6:25 AM — Nov 29 6:55 AM, Apeldoorn, Weather by CustomWeather, © 2014

Note: Actual official high and low records may vary slightly from our data, if they occured in-between our weather recording intervals... More about our weather records

Advertising

Apeldoorn weather history for previous 24 hours

 ConditionsComfort  
Time TempWeatherWind HumidityBarometerVisibility
6:55 AM
Nov 29
34 °FFog.7 mph93%29.95 "Hg3 mi
6:25 AM34 °FFog.8 mph93%29.95 "Hg3 mi
5:55 AM34 °FFog.8 mph93%29.92 "Hg3 mi
5:25 AM34 °FFog.7 mph93%29.95 "Hg3 mi
4:55 AM34 °FFog.7 mph93%29.92 "Hg3 mi
4:25 AM34 °FFog.10 mph93%29.92 "Hg3 mi
3:55 AM34 °FFog.9 mph93%29.92 "Hg3 mi
3:25 AM34 °FFog.7 mph93%29.92 "Hg3 mi
2:55 AM34 °FFog.7 mph93%29.92 "Hg3 mi
2:25 AM34 °FFog.9 mph93%29.92 "Hg3 mi
1:55 AM34 °FFog.9 mph93%29.92 "Hg3 mi
1:25 AM36 °FFog.7 mph87%29.92 "Hg4 mi
12:55 AM36 °FFog.8 mph87%29.92 "Hg4 mi
12:25 AM36 °FFog.8 mph87%29.92 "Hg4 mi
11:55 PM
Nov 28
36 °FFog.8 mph87%29.92 "Hg4 mi
11:25 PM36 °FFog.8 mph87%29.92 "Hg4 mi
10:55 PM36 °FFog.8 mph87%29.92 "Hg4 mi
10:25 PM37 °FFog.9 mph81%29.92 "Hg4 mi
9:55 PM37 °FFog.8 mph87%29.89 "Hg4 mi
9:25 PM37 °FFog.10 mph87%29.89 "Hg4 mi
8:55 PM39 °FFog.14 mph81%29.89 "Hg5 mi
8:25 PM39 °FFog.10 mph81%29.89 "Hg5 mi
7:55 PM39 °FFog.10 mph81%29.86 "Hg5 mi
7:25 PM41 °FFog.9 mph81%29.86 "Hg4 mi
6:55 PM41 °FFog.9 mph81%29.86 "Hg5 mi
6:25 PM41 °FFog.12 mph87%29.86 "Hg5 mi
5:55 PM43 °FFog.13 mph81%29.86 "Hg5 mi
5:25 PM43 °FFog.9 mph81%29.83 "Hg5 mi
4:55 PM43 °FFog.9 mph81%29.83 "Hg4 mi
4:25 PM43 °FFog.12 mph81%29.83 "Hg5 mi
3:55 PM43 °FFog.10 mph87%29.80 "Hg5 mi
3:25 PM45 °FFog.10 mph81%29.80 "Hg5 mi
2:55 PM45 °FFog.13 mph81%29.80 "Hg5 mi
2:25 PM45 °FFog.13 mph81%29.80 "Hg4 mi
1:55 PM45 °FFog.12 mph81%29.80 "Hg5 mi
1:25 PM45 °FFog.12 mph87%29.80 "Hg4 mi
12:55 PM45 °FFog.10 mph87%29.80 "Hg4 mi
12:25 PM45 °FFog.10 mph87%29.80 "Hg4 mi
11:55 AM45 °FFog.13 mph87%29.80 "Hg4 mi
11:25 AM43 °FFog.8 mph87%29.80 "Hg4 mi
10:55 AM43 °FFog.10 mph87%29.80 "Hg4 mi
10:25 AM41 °FFog.10 mph93%29.80 "Hg4 mi
9:55 AM41 °FFog.12 mph93%29.80 "Hg4 mi
9:25 AM41 °FFog.8 mph93%29.80 "Hg3 mi
8:55 AM39 °FFog.7 mph100%29.77 "Hg3 mi
8:25 AM39 °FFog.8 mph100%29.77 "Hg3 mi
7:55 AM41 °FFog.8 mph93%29.77 "Hg3 mi
7:25 AM41 °FFog.9 mph93%29.77 "Hg3 mi
Weather by CustomWeather, © 2014

See weather overviewHow to use our weather pages